This demonstration page uses our WeatherBlox Daily Observations layout. Learn more.

38.89511, -77.03637

Hourly Observations for October 11, 2018

Temp ( °F °C ) Dew Point ( °F °C ) Humidity (%) Winds ( mph kmh ) Pressure ( in mb ) Visibility ( mi km ) Precip ( " mm )
12:52 am 00:52 Cloudy 76 24.4 71 21.7 85 85 S 9 15 29.87 1012 10 16.0934 0 0
1:52 am 01:52 Cloudy 76 24.4 71 21.7 85 85 S 7 11 29.86 1011 10 16.0934 0 0
2:52 am 02:52 Cloudy 75 23.9 71 21.7 88 88 S 5 7 29.83 1010 10 16.0934 0 0.0254
3:52 am 03:52 Cloudy with Light Rain 76 24.4 71 21.7 85 85 SSE 7 11 29.8 1009 9 14.48406 0 0.0254
4:03 am 04:03 Cloudy with Light Rain 75 23.9 71 21.7 88 88 SSE 7 11 29.8 1009 8 12.87472 0 0.0254
4:52 am 04:52 Cloudy 76 24.4 72 22.2 88 88 S 5 7 29.79 1009 10 16.0934 0 0.0254
5:15 am 05:15 Cloudy 76 24.4 71 21.7 85 85 SSE 7 11 29.77 1008 10 16.0934 0 0
5:45 am 05:45 Cloudy 76 24.4 72 22.2 88 88 SSE 7 11 29.77 1008 10 16.0934 0 0
5:52 am 05:52 Cloudy 76 24.4 72 22.2 88 88 SSE 9 15 29.77 1008 10 16.0934 0 0
6:02 am 06:02 Cloudy 76 24.4 72 22.2 88 88 SSE 10 17 29.77 1008 10 16.0934 0 0
6:14 am 06:14 Cloudy with Light Rain 76 24.4 72 22.2 88 88 SSE 9 15 29.77 1008 3 4.82802 0.01 0.254
6:19 am 06:19 Cloudy with Heavy Rain 76 24.4 72 22.2 88 88 S 10 17 29.77 1008 2.5 4.02335 0.04 1.016
6:29 am 06:29 Cloudy with Light Rain 75 23.9 73 22.8 94 94 S 8 13 29.77 1008 4 6.43736 0.06 1.524
6:41 am 06:41 Cloudy with Light Rain 75 23.9 73 22.8 94 94 SSE 6 9 29.74 1007 10 16.0934 0.06 1.524
6:45 am 06:45 Cloudy with Light Rain 75 23.9 73 22.8 94 94 S 7 11 29.74 1007 10 16.0934 0.06 1.524
6:52 am 06:52 Cloudy with Light Rain 75 23.9 73 22.8 94 94 S 8 13 29.75 1007 5 8.0467 0.06 1.524
7:12 am 07:12 Cloudy with Rain 75 23.9 73 22.8 94 94 S 7 11 29.74 1007 4 6.43736 0.07 1.778
7:23 am 07:23 Cloudy with Light Rain 75 23.9 73 22.8 94 94 S 8 13 29.74 1007 10 16.0934 0.07 1.778
7:52 am 07:52 Cloudy 76 24.4 73 22.8 91 91 S 12 19 29.74 1007 10 16.0934 0.07 1.778
8:52 am 08:52 Cloudy 77 25 73 22.8 88 88 SSW 12 19 29.74 1007 10 16.0934 0 0.0254
9:52 am 09:52 Cloudy 78 25.6 74 23.3 87 87 SSW 13 20 29.72 1007 10 16.0934 0 0.0254
10:00 am 10:00 Cloudy 78 25.6 73 22.8 85 85 SSW 14 22 29.71 1006 10 16.0934 0 0
10:09 am 10:09 Mostly Cloudy 78 25.6 74 23.3 87 87 SSW 10 17 29.74 1007 10 16.0934 0 0
10:17 am 10:17 Cloudy 79 26.1 74 23.3 85 85 SSW 8 13 29.74 1007 10 16.0934 0 0
10:52 am 10:52 Cloudy 79 26.1 74 23.3 85 85 SSW 13 20 29.72 1006 10 16.0934 0 0
11:32 am 11:32 Cloudy 80 26.7 74 23.3 82 82 S 9 15 29.71 1006 10 16.0934 0 0
11:52 am 11:52 Cloudy 80 26.7 73 22.8 79 79 SSW 13 20 29.71 1006 10 16.0934 0 0
12:52 pm 12:52 Cloudy 82 27.8 73 22.8 74 74 S 9 15 29.69 1006 10 16.0934 0 0
1:37 pm 13:37 Cloudy 81 27.2 74 23.3 79 79 S 7 11 29.65 1004 10 16.0934 0 0
1:52 pm 13:52 Cloudy 82 27.8 74 23.3 77 77 S 7 11 29.65 1004 10 16.0934 0 0
2:41 pm 14:41 Cloudy with Rain 80 26.7 73 22.8 79 79 S 6 9 29.65 1004 6 9.65604 0.01 0.254
2:52 pm 14:52 Cloudy with Heavy Rain 80 26.7 73 22.8 79 79 S 6 9 29.63 1003 4 6.43736 0.03 0.762
3:52 pm 15:52 Cloudy 81 27.2 74 23.3 79 79 Calm 29.62 1003 10 16.0934 0.01 0.254
4:43 pm 16:43 Cloudy with Nearby Thunderstorms 81 27.2 73 22.8 77 77 NE 3 6 29.62 1003 10 16.0934 0 0
4:52 pm 16:52 Cloudy with Nearby Thunderstorms 79 26.1 74 23.3 85 85 Calm 29.62 1003 2.5 4.02335 0 0.0254
4:54 pm 16:54 Cloudy with Nearby Thunderstorms 79 26.1 74 23.3 85 85 Calm 29.62 1003 1.25 2.011675 0.03 0.762
5:05 pm 17:05 Cloudy with Nearby Thunderstorms 78 25.6 74 23.3 87 87 NNE 13 20 29.56 1001 3 4.82802 0.15 3.81
5:08 pm 17:08 Cloudy with Light Thunderstorms 78 25.6 74 23.3 87 87 NNE 12 19 29.56 1001 6 9.65604 0.15 3.81
5:23 pm 17:23 Cloudy with Nearby Thunderstorms 78 25.6 73 22.8 85 85 NNE 10 17 29.56 1001 10 16.0934 0.15 3.81
5:45 pm 17:45 Cloudy with Light Rain 79 26.1 74 23.3 85 85 N 13 20 29.59 1002 10 16.0934 0.17 4.318
5:52 pm 17:52 Cloudy with Nearby Thunderstorms 78 25.6 73 22.8 85 85 N 15 24 29.58 1002 10 16.0934 0.17 4.318
5:54 pm 17:54 Cloudy with Nearby Thunderstorms 77 25 73 22.8 88 88 N 16 26 29.59 1002 9 14.48406 0 0.0254
5:57 pm 17:57 Cloudy with Nearby Thunderstorms 77 25 72 22.2 85 85 N 16 26 29.56 1001 4 6.43736 0.03 0.762
6:01 pm 18:01 Cloudy with Nearby Thunderstorms 77 25 73 22.8 88 88 NNW 18 30 29.59 1002 2.5 4.02335 0.14 3.556
6:04 pm 18:04 Cloudy with Heavy Rain 77 25 73 22.8 88 88 N 16 26 29.59 1002 2.5 4.02335 0.17 4.318
6:07 pm 18:07 Cloudy with Rain 77 25 73 22.8 88 88 N 14 22 29.56 1001 3 4.82802 0.18 4.572
6:21 pm 18:21 Cloudy with Nearby Thunderstorms 75 23.9 69 20.6 82 82 N 20 31 29.56 1001 5 8.0467 0.22 5.588
6:26 pm 18:26 Cloudy with Nearby Thunderstorms 74 23.3 68 20 82 82 NNW 22 35 29.56 1001 4 6.43736 0.27 6.858
6:38 pm 18:38 Cloudy with Heavy Rain 74 23.3 68 20 82 82 NNW 20 31 29.56 1001 5 8.0467 0.32 8.128
6:52 pm 18:52 Cloudy with Heavy Rain 73 22.8 67 19.4 81 81 NNW 14 22 29.56 1001 4 6.43736 0.42 10.668
7:14 pm 19:14 Cloudy with Light Thunderstorms 73 22.8 68 20 84 84 N 8 13 29.56 1001 10 16.0934 0.07 1.778
7:52 pm 19:52 Cloudy with Heavy Thunderstorms 73 22.8 70 21.1 90 90 NNW 7 11 29.57 1001 5 8.0467 0.13 3.302
8:00 pm 20:00 Cloudy with Heavy Thunderstorms 73 22.8 70 21.1 90 90 WNW 5 7 29.59 1002 3 4.82802 0.04 1.016
8:10 pm 20:10 Cloudy with Thunderstorms 74 23.3 70 21.1 88 88 WNW 3 6 29.59 1002 4 6.43736 0.07 1.778
8:37 pm 20:37 Cloudy with Light Rain 73 22.8 70 21.1 90 90 NNW 15 24 29.56 1001 9 14.48406 0.11 2.794
8:40 pm 20:40 Cloudy with Rain 73 22.8 70 21.1 90 90 N 12 19 29.56 1001 8 12.87472 0.11 2.794
8:52 pm 20:52 Cloudy with Rain 73 22.8 70 21.1 90 90 NNE 7 11 29.58 1002 5 8.0467 0.15 3.81
9:09 pm 21:09 Cloudy with Rain 73 22.8 70 21.1 90 90 NE 12 19 29.56 1001 5 8.0467 0.06 1.524
9:34 pm 21:34 Cloudy with Nearby Thunderstorms 73 22.8 70 21.1 90 90 N 14 22 29.53 1000 6 9.65604 0.15 3.81
9:52 pm 21:52 Cloudy with Rain 73 22.8 69 20.6 87 87 N 21 33 29.53 1000 8 12.87472 0.19 4.826
10:52 pm 22:52 Cloudy with Rain 73 22.8 69 20.6 87 87 N 17 28 29.51 999 10 16.0934 0.17 4.318
11:52 pm 23:52 Cloudy with Light Rain 72 22.2 68 20 87 87 N 15 24 29.51 999 10 16.0934 0.1 2.54

Powered by AerisWeather